Time,TemperatureF,DewpointF,PressureIn,WindDirection,WindDirectionDegrees,WindSpeedMPH,WindSpeedGustMPH,Humidity,HourlyPrecipIn,Conditions,Clouds,dailyrainin,SoftwareType,DateUTC
2013-05-01 00:00:00,54.6,47.5,27.50,SE,136,3.4,8.6,76,0.00,--,--,0.00,awk and wget,2013-05-01 04:00:00,
2013-05-01 00:05:00,54.6,47.4,27.50,East,85,6.5,12.4,76,0.00,--,--,0.00,awk and wget,2013-05-01 04:05:00,
2013-05-01 00:10:00,54.5,47.5,27.50,ESE,122,7.4,12.4,77,0.00,--,--,0.00,awk and wget,2013-05-01 04:10:00,
2013-05-01 00:15:00,54.5,47.2,27.50,ESE,118,5.6,12.4,76,0.00,--,--,0.00,awk and wget,2013-05-01 04:15:00,
2013-05-01 00:20:00,54.4,47.0,27.50,ENE,77,5.8,8.8,76,0.00,--,--,0.00,awk and wget,2013-05-01 04:20:00,
2013-05-01 00:25:00,54.4,46.9,27.50,ESE,117,2.8,13.1,75,0.00,--,--,0.00,awk and wget,2013-05-01 04:25:00,
2013-05-01 00:30:00,54.3,46.9,27.50,ESE,117,12.0,13.1,75,0.00,--,--,0.00,awk and wget,2013-05-01 04:30:00,
2013-05-01 00:40:00,54.4,46.4,27.50,ESE,109,6.2,10.5,74,0.00,--,--,0.00,awk and wget,2013-05-01 04:40:00,
2013-05-01 00:45:00,54.3,46.3,27.51,ESE,117,6.1,23.2,74,0.00,--,--,0.00,awk and wget,2013-05-01 04:45:00,
2013-05-01 00:50:00,54.2,46.3,27.51,ESE,121,2.6,23.2,74,0.00,--,--,0.00,awk and wget,2013-05-01 04:50:00,
2013-05-01 00:55:00,54.3,46.2,27.51,NNW,347,5.7,23.2,74,0.00,--,--,0.00,awk and wget,2013-05-01 04:55:00,
2013-05-01 01:00:00,54.3,46.3,27.51,ESE,108,5.2,8.1,74,0.00,--,--,0.00,awk and wget,2013-05-01 05:00:00,
2013-05-01 01:10:00,53.9,46.6,27.51,SE,136,2.5,8.1,76,0.00,--,--,0.00,awk and wget,2013-05-01 05:10:00,
2013-05-01 01:15:00,53.7,46.6,27.50,ESE,117,6.2,7.6,76,0.00,--,--,0.00,awk and wget,2013-05-01 05:15:00,
2013-05-01 01:20:00,53.8,46.3,27.51,ESE,117,4.4,6.0,75,0.00,--,--,0.00,awk and wget,2013-05-01 05:20:00,
2013-05-01 01:25:00,53.5,46.4,27.51,SE,125,2.6,7.6,76,0.00,--,--,0.00,awk and wget,2013-05-01 05:25:00,
2013-05-01 01:30:00,53.7,46.3,27.51,ESE,115,1.3,8.9,75,0.00,--,--,0.00,awk and wget,2013-05-01 05:30:00,
2013-05-01 01:40:00,53.5,46.2,27.50,ESE,119,7.1,8.9,76,0.00,--,--,0.00,awk and wget,2013-05-01 05:40:00,
2013-05-01 01:45:00,53.7,46.1,27.50,ESE,123,8.6,9.8,75,0.00,--,--,0.00,awk and wget,2013-05-01 05:45:00,
2013-05-01 01:50:00,53.8,46.2,27.50,NNW,333,2.3,12.4,75,0.00,--,--,0.00,awk and wget,2013-05-01 05:50:00,
2013-05-01 01:55:00,53.7,46.2,27.50,SE,138,2.4,12.4,75,0.00,--,--,0.00,awk and wget,2013-05-01 05:55:00,
2013-05-01 02:00:00,53.9,46.0,27.50,SSE,150,1.2,12.4,74,0.00,--,--,0.00,awk and wget,2013-05-01 06:00:00,
2013-05-01 02:10:00,53.3,46.5,27.50,NNW,333,2.6,8.0,77,0.00,--,--,0.00,awk and wget,2013-05-01 06:10:00,
2013-05-01 02:20:00,53.3,46.6,27.50,NNW,332,1.5,8.0,77,0.00,--,--,0.00,awk and wget,2013-05-01 06:20:00,
2013-05-01 02:25:00,53.3,46.7,27.50,SSE,149,0.8,7.5,78,0.00,--,--,0.00,awk and wget,2013-05-01 06:25:00,
2013-05-01 02:30:00,52.9,47.1,27.50,NNW,333,0.1,6.8,80,0.00,--,--,0.00,awk and wget,2013-05-01 06:30:00,
2013-05-01 02:35:00,52.9,47.1,27.50,NNW,331,2.6,6.8,80,0.00,--,--,0.00,awk and wget,2013-05-01 06:35:00,
2013-05-01 02:40:00,52.9,46.8,27.50,NNW,332,1.1,6.5,79,0.00,--,--,0.00,awk and wget,2013-05-01 06:40:00,
2013-05-01 02:45:00,52.8,47.0,27.50,NNW,331,1.2,6.5,80,0.00,--,--,0.00,awk and wget,2013-05-01 06:45:00,
2013-05-01 02:50:00,52.9,46.9,27.49,East,87,4.0,5.1,80,0.00,--,--,0.00,awk and wget,2013-05-01 06:50:00,
2013-05-01 02:55:00,53.0,46.7,27.49,ESE,104,2.9,3.7,79,0.00,--,--,0.00,awk and wget,2013-05-01 06:55:00,
2013-05-01 03:00:00,52.8,46.9,27.49,NNW,333,0.2,3.7,80,0.00,--,--,0.00,awk and wget,2013-05-01 07:00:00,
2013-05-01 03:10:00,52.5,46.8,27.50,NNW,330,0.0,5.1,81,0.00,--,--,0.00,awk and wget,2013-05-01 07:10:00,
2013-05-01 03:15:00,52.5,46.9,27.50,ESE,122,0.9,5.1,81,0.00,--,--,0.00,awk and wget,2013-05-01 07:15:00,
2013-05-01 03:20:00,52.5,47.1,27.50,NNW,330,0.0,8.7,81,0.00,--,--,0.00,awk and wget,2013-05-01 07:20:00,
2013-05-01 03:25:00,52.6,47.0,27.50,NE,39,3.8,8.7,81,0.00,--,--,0.00,awk and wget,2013-05-01 07:25:00,
2013-05-01 03:30:00,53.0,46.6,27.50,NNW,336,4.0,8.7,78,0.00,--,--,0.00,awk and wget,2013-05-01 07:30:00,
2013-05-01 03:40:00,53.1,46.5,27.50,ENE,77,3.0,7.3,78,0.00,--,--,0.00,awk and wget,2013-05-01 07:40:00,
2013-05-01 03:45:00,53.0,46.5,27.50,NNW,336,2.2,5.6,78,0.00,--,--,0.00,awk and wget,2013-05-01 07:45:00,
2013-05-01 03:50:00,52.8,46.6,27.50,NNW,346,1.7,5.2,79,0.00,--,--,0.00,awk and wget,2013-05-01 07:50:00,
2013-05-01 03:55:00,52.7,46.6,27.50,NNW,343,1.9,5.1,79,0.00,--,--,0.00,awk and wget,2013-05-01 07:55:00,
2013-05-01 04:00:00,52.8,46.5,27.50,NNW,340,0.3,5.1,78,0.00,--,--,0.00,awk and wget,2013-05-01 08:00:00,
2013-05-01 04:10:00,52.5,46.6,27.49,NNW,332,2.8,9.2,80,0.00,--,--,0.00,awk and wget,2013-05-01 08:10:00,
2013-05-01 04:15:00,52.3,46.7,27.49,NNW,333,4.0,9.2,81,0.00,--,--,0.00,awk and wget,2013-05-01 08:15:00,
2013-05-01 04:20:00,52.2,46.6,27.49,NNW,331,1.1,9.2,81,0.00,--,--,0.00,awk and wget,2013-05-01 08:20:00,
2013-05-01 04:30:00,52.1,46.8,27.50,NNW,336,2.6,8.5,81,0.00,--,--,0.00,awk and wget,2013-05-01 08:30:00,
2013-05-01 04:40:00,52.3,46.9,27.50,NNW,333,0.4,7.3,81,0.00,--,--,0.00,awk and wget,2013-05-01 08:40:00,
2013-05-01 04:45:00,52.9,46.6,27.50,NNW,331,2.6,7.0,79,0.00,--,--,0.00,awk and wget,2013-05-01 08:45:00,
2013-05-01 04:50:00,52.8,46.8,27.50,NNW,331,4.2,6.3,79,0.00,--,--,0.00,awk and wget,2013-05-01 08:50:00,
2013-05-01 05:00:00,52.2,46.9,27.50,NNW,331,3.1,6.6,82,0.00,--,--,0.00,awk and wget,2013-05-01 09:00:00,
2013-05-01 05:10:00,52.2,47.2,27.50,NNW,330,4.0,6.7,83,0.00,--,--,0.00,awk and wget,2013-05-01 09:10:00,
2013-05-01 05:15:00,52.2,47.3,27.51,NNW,330,5.9,6.7,83,0.00,--,--,0.00,awk and wget,2013-05-01 09:15:00,
2013-05-01 05:20:00,52.3,47.6,27.51,NNW,334,2.2,6.7,83,0.00,--,--,0.00,awk and wget,2013-05-01 09:20:00,
2013-05-01 05:25:00,52.4,47.7,27.51,NNW,331,1.2,6.7,83,0.00,--,--,0.00,awk and wget,2013-05-01 09:25:00,
2013-05-01 05:30:00,52.3,47.5,27.51,NNW,332,0.1,9.8,83,0.00,--,--,0.00,awk and wget,2013-05-01 09:30:00,
2013-05-01 05:40:00,51.9,47.5,27.51,NNW,336,3.3,9.8,84,0.00,--,--,0.00,awk and wget,2013-05-01 09:40:00,
2013-05-01 05:50:00,51.9,47.6,27.51,NNW,335,4.1,6.4,85,0.00,--,--,0.00,awk and wget,2013-05-01 09:50:00,
2013-05-01 05:55:00,51.7,47.7,27.51,NNW,330,4.7,6.2,86,0.00,--,--,0.00,awk and wget,2013-05-01 09:55:00,
2013-05-01 06:00:00,51.8,47.8,27.51,NNW,330,5.7,6.5,86,0.00,--,--,0.00,awk and wget,2013-05-01 10:00:00,
2013-05-01 06:10:00,52.1,47.7,27.52,NNW,330,6.9,8.0,84,0.00,--,--,0.00,awk and wget,2013-05-01 10:10:00,
2013-05-01 06:15:00,52.0,47.6,27.52,NNW,331,5.8,8.1,84,0.00,--,--,0.00,awk and wget,2013-05-01 10:15:00,
2013-05-01 06:20:00,51.9,47.8,27.52,NNW,331,2.5,8.1,85,0.00,--,--,0.00,awk and wget,2013-05-01 10:20:00,
2013-05-01 06:30:00,52.1,48.0,27.52,NNW,334,2.7,7.6,85,0.00,--,--,0.00,awk and wget,2013-05-01 10:30:00,
2013-05-01 06:40:00,52.5,47.8,27.53,SSE,151,4.7,7.9,83,0.00,--,--,0.00,awk and wget,2013-05-01 10:40:00,
2013-05-01 06:45:00,52.5,47.8,27.53,NNW,334,3.2,8.4,83,0.00,--,--,0.00,awk and wget,2013-05-01 10:45:00,
2013-05-01 06:50:00,52.5,47.8,27.53,NNW,330,6.1,8.4,83,0.00,--,--,0.00,awk and wget,2013-05-01 10:50:00,
2013-05-01 06:55:00,52.5,47.9,27.54,NNW,332,2.9,8.4,84,0.00,--,--,0.00,awk and wget,2013-05-01 10:55:00,
2013-05-01 07:00:00,52.7,47.8,27.54,NNW,331,3.1,7.8,83,0.00,--,--,0.00,awk and wget,2013-05-01 11:00:00,
2013-05-01 07:10:00,52.5,47.8,27.54,NNW,331,3.7,24.1,83,0.00,--,--,0.00,awk and wget,2013-05-01 11:10:00,
2013-05-01 07:15:00,52.5,47.8,27.54,NNW,330,1.9,24.1,83,0.00,--,--,0.00,awk and wget,2013-05-01 11:15:00,
2013-05-01 07:20:00,52.7,47.8,27.55,SSE,152,2.2,24.1,83,0.00,--,--,0.00,awk and wget,2013-05-01 11:20:00,
2013-05-01 07:25:00,52.9,47.6,27.55,NNW,333,0.8,9.0,82,0.00,--,--,0.00,awk and wget,2013-05-01 11:25:00,
2013-05-01 07:30:00,53.0,47.8,27.55,NNW,330,1.9,6.0,82,0.00,--,--,0.00,awk and wget,2013-05-01 11:30:00,
2013-05-01 07:40:00,53.3,48.1,27.55,NNW,331,1.6,6.0,82,0.00,--,--,0.00,awk and wget,2013-05-01 11:40:00,
2013-05-01 07:45:00,53.5,48.1,27.55,NNW,333,1.7,5.7,81,0.00,--,--,0.00,awk and wget,2013-05-01 11:45:00,
2013-05-01 07:50:00,53.5,47.6,27.55,NNW,331,3.9,7.6,80,0.00,--,--,0.00,awk and wget,2013-05-01 11:50:00,
2013-05-01 07:55:00,53.4,47.7,27.56,NNW,331,4.1,7.6,80,0.00,--,--,0.00,awk and wget,2013-05-01 11:55:00,
2013-05-01 08:00:00,53.6,47.7,27.56,NNW,330,5.1,8.3,80,0.00,--,--,0.00,awk and wget,2013-05-01 12:00:00,
2013-05-01 08:05:00,53.4,47.7,27.56,NNW,331,1.2,8.5,80,0.00,--,--,0.00,awk and wget,2013-05-01 12:05:00,
2013-05-01 08:10:00,53.4,47.7,27.56,NNW,345,1.5,8.5,81,0.00,--,--,0.00,awk and wget,2013-05-01 12:10:00,
2013-05-01 08:15:00,53.6,47.6,27.56,NNW,331,2.9,8.5,79,0.00,--,--,0.00,awk and wget,2013-05-01 12:15:00,
2013-05-01 08:20:00,53.8,47.6,27.56,NNW,333,0.8,6.8,79,0.00,--,--,0.00,awk and wget,2013-05-01 12:20:00,
2013-05-01 08:30:00,54.5,47.6,27.56,NNW,339,2.6,6.1,77,0.00,--,--,0.00,awk and wget,2013-05-01 12:30:00,
2013-05-01 08:40:00,54.3,47.1,27.56,NNW,333,1.5,9.8,76,0.00,--,--,0.00,awk and wget,2013-05-01 12:40:00,
2013-05-01 08:45:00,54.3,47.2,27.56,NNW,334,2.3,9.8,76,0.00,--,--,0.00,awk and wget,2013-05-01 12:45:00,
2013-05-01 08:50:00,54.4,47.7,27.57,ESE,107,4.7,8.6,77,0.00,--,--,0.00,awk and wget,2013-05-01 12:50:00,
2013-05-01 09:00:00,54.9,47.0,27.57,SSE,147,2.2,9.6,74,0.00,--,--,0.00,awk and wget,2013-05-01 13:00:00,
2013-05-01 09:05:00,54.9,47.1,27.57,ESE,116,6.0,12.5,74,0.00,--,--,0.00,awk and wget,2013-05-01 13:05:00,
2013-05-01 09:10:00,55.2,47.1,27.57,SE,132,5.2,12.5,74,0.00,--,--,0.00,awk and wget,2013-05-01 13:10:00,
2013-05-01 09:15:00,55.4,47.2,27.58,ESE,120,5.0,12.5,73,0.00,--,--,0.00,awk and wget,2013-05-01 13:15:00,
2013-05-01 09:20:00,55.5,47.6,27.57,SE,135,3.7,13.4,74,0.00,--,--,0.00,awk and wget,2013-05-01 13:20:00,
2013-05-01 09:30:00,54.9,46.9,27.57,East,96,4.1,26.2,74,0.00,--,--,0.00,awk and wget,2013-05-01 13:30:00,
2013-05-01 09:35:00,55.3,47.1,27.58,NNW,335,2.8,26.2,73,0.00,--,--,0.00,awk and wget,2013-05-01 13:35:00,
2013-05-01 09:40:00,55.2,47.0,27.58,ENE,59,2.9,11.9,73,0.00,--,--,0.00,awk and wget,2013-05-01 13:40:00,
2013-05-01 09:45:00,55.0,46.8,27.58,SE,143,1.9,11.9,73,0.00,--,--,0.00,awk and wget,2013-05-01 13:45:00,
2013-05-01 09:50:00,55.4,46.8,27.58,North,10,3.4,11.2,72,0.00,--,--,0.00,awk and wget,2013-05-01 13:50:00,
2013-05-01 10:00:00,55.8,47.2,27.58,NNW,340,3.5,12.3,72,0.00,--,--,0.00,awk and wget,2013-05-01 14:00:00,
2013-05-01 10:10:00,55.7,47.0,27.58,SE,132,7.4,13.4,72,0.00,--,--,0.00,awk and wget,2013-05-01 14:10:00,
2013-05-01 10:20:00,56.0,46.9,27.58,SE,137,7.4,12.7,71,0.00,--,--,0.00,awk and wget,2013-05-01 14:20:00,
2013-05-01 10:25:00,56.6,47.2,27.58,NNW,333,1.8,11.4,70,0.00,--,--,0.00,awk and wget,2013-05-01 14:25:00,
2013-05-01 10:30:00,56.3,47.3,27.58,ESE,123,8.1,11.7,71,0.00,--,--,0.00,awk and wget,2013-05-01 14:30:00,
2013-05-01 10:40:00,56.5,47.8,27.58,ENE,77,5.6,12.1,72,0.00,--,--,0.00,awk and wget,2013-05-01 14:40:00,
2013-05-01 10:45:00,56.6,47.9,27.58,ESE,115,4.6,14.8,72,0.00,--,--,0.00,awk and wget,2013-05-01 14:45:00,
2013-05-01 10:50:00,56.8,47.8,27.58,NNW,328,8.4,14.8,71,0.00,--,--,0.00,awk and wget,2013-05-01 14:50:00,
2013-05-01 10:55:00,56.8,47.1,27.58,SSE,154,3.1,14.8,70,0.00,--,--,0.00,awk and wget,2013-05-01 14:55:00,
2013-05-01 11:00:00,56.5,47.6,27.58,NNW,330,2.3,12.3,71,0.00,--,--,0.00,awk and wget,2013-05-01 15:00:00,
2013-05-01 11:10:00,57.4,47.3,27.59,NNW,330,2.6,10.7,68,0.00,--,--,0.00,awk and wget,2013-05-01 15:10:00,
2013-05-01 11:15:00,57.8,48.0,27.59,NNW,328,2.5,10.7,69,0.00,--,--,0.00,awk and wget,2013-05-01 15:15:00,
2013-05-01 11:20:00,57.8,47.7,27.59,SSE,148,5.0,10.7,68,0.00,--,--,0.00,awk and wget,2013-05-01 15:20:00,
2013-05-01 11:30:00,58.5,47.0,27.59,NNW,331,8.6,12.3,65,0.00,--,--,0.00,awk and wget,2013-05-01 15:30:00,
2013-05-01 11:35:00,58.6,47.3,27.59,ENE,78,3.5,12.3,66,0.00,--,--,0.00,awk and wget,2013-05-01 15:35:00,
2013-05-01 11:40:00,59.1,47.6,27.59,SE,128,3.7,10.8,65,0.00,--,--,0.00,awk and wget,2013-05-01 15:40:00,
2013-05-01 11:50:00,59.0,46.6,27.59,NNE,27,6.4,10.3,63,0.00,--,--,0.00,awk and wget,2013-05-01 15:50:00,
2013-05-01 12:00:00,60.9,46.3,27.58,NNW,332,13.9,15.7,58,0.00,--,--,0.00,awk and wget,2013-05-01 16:00:00,
2013-05-01 12:10:00,60.6,46.2,27.58,SE,140,7.6,19.5,58,0.00,--,--,0.00,awk and wget,2013-05-01 16:10:00,
2013-05-01 12:15:00,61.0,46.1,27.58,ESE,107,13.6,19.5,57,0.00,--,--,0.00,awk and wget,2013-05-01 16:15:00,
2013-05-01 12:20:00,61.4,46.2,27.58,ESE,114,12.1,14.9,57,0.00,--,--,0.00,awk and wget,2013-05-01 16:20:00,
2013-05-01 12:30:00,61.7,44.9,27.58,NNE,30,15.1,19.1,53,0.00,--,--,0.00,awk and wget,2013-05-01 16:30:00,
2013-05-01 12:35:00,62.4,45.0,27.57,NE,42,8.2,21.9,52,0.00,--,--,0.00,awk and wget,2013-05-01 16:35:00,
2013-05-01 12:40:00,62.7,46.5,27.57,ESE,104,4.8,21.9,55,0.00,--,--,0.00,awk and wget,2013-05-01 16:40:00,
2013-05-01 12:45:00,62.7,45.7,27.57,NNE,31,12.9,21.9,53,0.00,--,--,0.00,awk and wget,2013-05-01 16:45:00,
2013-05-01 12:50:00,62.6,44.3,27.57,ENE,73,11.0,16.5,51,0.00,--,--,0.00,awk and wget,2013-05-01 16:50:00,
2013-05-01 13:00:00,64.0,46.2,27.56,North,2,19.8,19.8,52,0.00,--,--,0.00,awk and wget,2013-05-01 17:00:00,
2013-05-01 13:05:00,63.4,44.8,27.56,East,96,10.1,19.8,50,0.00,--,--,0.00,awk and wget,2013-05-01 17:05:00,
2013-05-01 13:10:00,64.4,45.3,27.56,ESE,119,11.0,19.8,49,0.00,--,--,0.00,awk and wget,2013-05-01 17:10:00,
2013-05-01 13:28:00,64.4,45.3,27.56,ESE,119,11.0,11.0,49,0.00,--,--,0.00,awk and wget,2013-05-01 17:28:00,
2013-05-01 13:35:00,63.9,45.5,27.56,ENE,75,8.5,14.9,51,0.00,--,--,0.00,awk and wget,2013-05-01 17:35:00,
2013-05-01 13:40:00,63.2,45.3,27.56,ESE,105,10.6,14.9,52,0.00,--,--,0.00,awk and wget,2013-05-01 17:40:00,
2013-05-01 13:45:00,63.8,46.2,27.56,ESE,105,12.8,15.6,52,0.00,--,--,0.00,awk and wget,2013-05-01 17:45:00,
2013-05-01 13:50:00,65.0,45.9,27.56,ESE,115,6.6,15.8,49,0.00,--,--,0.00,awk and wget,2013-05-01 17:50:00,
2013-05-01 14:00:00,64.7,32.0,27.56,East,99,14.4,20.0,0,0.00,--,--,0.00,awk and wget,2013-05-01 18:00:00,
2013-05-01 14:10:00,64.6,32.0,27.56,ESE,117,10.3,18.8,0,0.00,--,--,0.00,awk and wget,2013-05-01 18:10:00,
2013-05-01 14:20:00,66.9,32.0,27.56,NNW,339,10.7,17.7,0,0.00,--,--,0.00,awk and wget,2013-05-01 18:20:00,
2013-05-01 14:30:00,66.9,32.0,27.56,ESE,120,8.7,18.5,0,0.00,--,--,0.00,awk and wget,2013-05-01 18:30:00,
2013-05-01 14:40:00,68.1,32.0,27.56,NNW,329,7.3,18.5,0,0.00,--,--,0.00,awk and wget,2013-05-01 18:40:00,
2013-05-01 14:45:00,66.9,32.0,27.56,East,87,11.2,15.0,0,0.00,--,--,0.00,awk and wget,2013-05-01 18:45:00,
2013-05-01 14:50:00,65.5,32.0,27.56,North,354,12.1,15.2,0,0.00,--,--,0.00,awk and wget,2013-05-01 18:50:00,
2013-05-01 15:00:00,67.0,32.0,27.56,NNW,341,8.8,19.5,0,0.00,--,--,0.00,awk and wget,2013-05-01 19:00:00,
2013-05-01 15:05:00,66.4,32.0,27.56,ESE,119,8.4,19.5,0,0.00,--,--,0.00,awk and wget,2013-05-01 19:05:00,
2013-05-01 15:10:00,67.2,32.0,27.56,ESE,115,13.8,19.5,0,0.00,--,--,0.00,awk and wget,2013-05-01 19:10:00,
2013-05-01 15:20:00,65.7,32.0,27.56,ESE,123,13.7,24.0,0,0.00,--,--,0.00,awk and wget,2013-05-01 19:20:00,
2013-05-01 15:30:00,65.7,32.0,27.56,ESE,107,17.5,24.0,0,0.00,--,--,0.00,awk and wget,2013-05-01 19:30:00,
2013-05-01 15:40:00,65.6,32.0,27.56,ENE,72,16.3,19.6,0,0.00,--,--,0.00,awk and wget,2013-05-01 19:40:00,
2013-05-01 15:45:00,66.5,32.0,27.56,SE,125,7.9,19.6,0,0.00,--,--,0.00,awk and wget,2013-05-01 19:45:00,
2013-05-01 15:50:00,66.9,32.0,27.56,ENE,76,13.2,19.3,0,0.00,--,--,0.00,awk and wget,2013-05-01 19:50:00,
2013-05-01 16:00:00,65.2,32.0,27.56,ESE,121,10.7,20.8,0,0.00,--,--,0.00,awk and wget,2013-05-01 20:00:00,
2013-05-01 16:05:00,65.3,32.0,27.56,East,86,14.0,20.8,0,0.00,--,--,0.00,awk and wget,2013-05-01 20:05:00,
2013-05-01 16:10:00,66.8,32.0,27.55,NNW,328,11.2,21.2,0,0.00,--,--,0.00,awk and wget,2013-05-01 20:10:00,
2013-05-01 16:15:00,67.8,32.0,27.56,ESE,106,13.8,21.2,0,0.00,--,--,0.00,awk and wget,2013-05-01 20:15:00,
2013-05-01 16:20:00,65.9,32.0,27.56,East,84,9.4,21.2,0,0.00,--,--,0.00,awk and wget,2013-05-01 20:20:00,
2013-05-01 16:25:00,66.1,32.0,27.56,ESE,108,13.4,19.2,0,0.00,--,--,0.00,awk and wget,2013-05-01 20:25:00,
2013-05-01 16:30:00,66.2,32.0,27.56,East,86,19.1,19.1,0,0.00,--,--,0.00,awk and wget,2013-05-01 20:30:00,
2013-05-01 16:35:00,65.9,32.0,27.56,East,84,9.3,19.1,0,0.00,--,--,0.00,awk and wget,2013-05-01 20:35:00,
2013-05-01 16:40:00,67.5,32.0,27.56,ENE,69,8.9,16.3,0,0.00,--,--,0.00,awk and wget,2013-05-01 20:40:00,
2013-05-01 16:45:00,67.7,32.0,27.56,NW,325,9.4,20.4,0,0.00,--,--,0.00,awk and wget,2013-05-01 20:45:00,
2013-05-01 16:50:00,66.5,32.0,27.56,East,85,13.8,20.4,0,0.00,--,--,0.00,awk and wget,2013-05-01 20:50:00,
2013-05-01 17:00:00,67.2,32.0,27.56,ESE,106,18.3,18.9,0,0.00,--,--,0.00,awk and wget,2013-05-01 21:00:00,
2013-05-01 17:05:00,66.7,32.0,27.56,ENE,59,16.1,22.3,0,0.00,--,--,0.00,awk and wget,2013-05-01 21:05:00,
2013-05-01 17:10:00,66.5,32.0,27.56,ESE,108,15.2,22.3,0,0.00,--,--,0.00,awk and wget,2013-05-01 21:10:00,
2013-05-01 17:20:00,66.6,32.0,27.56,NE,54,16.9,21.7,0,0.00,--,--,0.00,awk and wget,2013-05-01 21:20:00,
2013-05-01 17:30:00,66.1,32.0,27.56,ESE,120,10.8,20.4,0,0.00,--,--,0.00,awk and wget,2013-05-01 21:30:00,
2013-05-01 17:40:00,67.5,32.0,27.56,NNW,329,2.4,18.4,0,0.00,--,--,0.00,awk and wget,2013-05-01 21:40:00,
2013-05-01 17:50:00,66.5,32.0,27.56,NNW,328,12.5,16.7,0,0.00,--,--,0.00,awk and wget,2013-05-01 21:50:00,
2013-05-01 18:00:00,66.3,32.0,27.56,ESE,117,13.8,17.6,0,0.00,--,--,0.00,awk and wget,2013-05-01 22:00:00,
2013-05-01 18:10:00,66.1,32.0,27.55,ENE,73,3.6,15.5,0,0.00,--,--,0.00,awk and wget,2013-05-01 22:10:00,
2013-05-01 18:20:00,66.3,32.0,27.55,NW,325,10.7,27.9,0,0.00,--,--,0.00,awk and wget,2013-05-01 22:20:00,
2013-05-01 18:30:00,66.1,32.0,27.56,SE,138,6.7,15.6,0,0.00,--,--,0.00,awk and wget,2013-05-01 22:30:00,
2013-05-01 18:35:00,66.6,32.0,27.56,ESE,120,8.5,15.6,0,0.00,--,--,0.00,awk and wget,2013-05-01 22:35:00,
2013-05-01 18:40:00,66.2,32.0,27.56,NNW,328,8.6,16.0,0,0.00,--,--,0.00,awk and wget,2013-05-01 22:40:00,
2013-05-01 18:45:00,65.6,32.0,27.56,ESE,118,9.9,16.0,0,0.00,--,--,0.00,awk and wget,2013-05-01 22:45:00,
2013-05-01 18:50:00,65.4,32.0,27.57,East,95,9.8,16.0,0,0.00,--,--,0.00,awk and wget,2013-05-01 22:50:00,
2013-05-01 19:00:00,65.2,32.0,27.57,North,355,9.5,15.8,0,0.00,--,--,0.00,awk and wget,2013-05-01 23:00:00,
2013-05-01 19:10:00,64.3,32.0,27.57,East,97,14.8,15.4,0,0.00,--,--,0.00,awk and wget,2013-05-01 23:10:00,
2013-05-01 19:20:00,63.8,32.0,27.57,ESE,123,8.7,12.9,0,0.00,--,--,0.00,awk and wget,2013-05-01 23:20:00,
2013-05-01 19:30:00,63.0,32.0,27.57,NNW,329,10.4,12.9,0,0.00,--,--,0.00,awk and wget,2013-05-01 23:30:00,
2013-05-01 19:40:00,62.3,32.0,27.57,ESE,107,11.4,16.1,0,0.00,--,--,0.00,awk and wget,2013-05-01 23:40:00,
2013-05-01 19:50:00,61.3,32.0,27.57,East,92,7.9,15.6,0,0.00,--,--,0.00,awk and wget,2013-05-01 23:50:00,
2013-05-01 20:00:00,60.7,32.0,27.57,East,93,8.3,15.6,0,0.00,--,--,0.00,awk and wget,2013-05-02 00:00:00,
2013-05-01 20:10:00,60.3,32.0,27.57,East,86,8.9,12.2,0,0.00,--,--,0.00,awk and wget,2013-05-02 00:10:00,
2013-05-01 20:20:00,59.9,32.0,27.57,NNE,31,11.4,11.4,0,0.00,--,--,0.00,awk and wget,2013-05-02 00:20:00,
2013-05-01 20:30:00,59.6,32.0,27.57,East,99,8.7,11.3,0,0.00,--,--,0.00,awk and wget,2013-05-02 00:30:00,
2013-05-01 20:35:00,58.8,32.0,27.58,ESE,121,5.8,10.1,0,0.00,--,--,0.00,awk and wget,2013-05-02 00:35:00,
2013-05-01 20:40:00,58.2,32.0,27.58,ENE,67,4.8,14.2,0,0.00,--,--,0.00,awk and wget,2013-05-02 00:40:00,
2013-05-01 20:45:00,57.0,32.0,27.58,East,101,5.2,14.2,0,0.00,--,--,0.00,awk and wget,2013-05-02 00:45:00,
2013-05-01 20:50:00,57.5,32.0,27.58,NNW,330,5.1,14.2,0,0.00,--,--,0.00,awk and wget,2013-05-02 00:50:00,
2013-05-01 21:00:00,56.8,32.0,27.58,ESE,122,5.7,8.3,0,0.00,--,--,0.00,awk and wget,2013-05-02 01:00:00,
2013-05-01 21:05:00,55.5,32.0,27.58,SE,136,3.9,8.3,0,0.00,--,--,0.00,awk and wget,2013-05-02 01:05:00,
2013-05-01 21:10:00,55.1,32.0,27.58,NNW,331,2.6,8.3,0,0.00,--,--,0.00,awk and wget,2013-05-02 01:10:00,
2013-05-01 21:15:00,53.2,32.0,27.59,NNW,331,2.0,7.4,0,0.00,--,--,0.00,awk and wget,2013-05-02 01:15:00,
2013-05-01 21:20:00,52.7,32.0,27.59,SE,124,3.0,7.6,0,0.00,--,--,0.00,awk and wget,2013-05-02 01:20:00,
2013-05-01 21:30:00,52.4,32.0,27.59,SSE,147,2.2,7.6,0,0.00,--,--,0.00,awk and wget,2013-05-02 01:30:00,
2013-05-01 21:35:00,51.6,32.0,27.59,SE,131,4.4,11.3,0,0.00,--,--,0.00,awk and wget,2013-05-02 01:35:00,
2013-05-01 21:40:00,51.5,32.0,27.59,North,4,2.5,11.3,0,0.00,--,--,0.00,awk and wget,2013-05-02 01:40:00,
2013-05-01 21:45:00,50.9,32.0,27.60,NE,39,4.8,12.8,0,0.00,--,--,0.00,awk and wget,2013-05-02 01:45:00,
2013-05-01 21:50:00,52.9,32.0,27.60,ESE,122,2.1,12.8,0,0.00,--,--,0.00,awk and wget,2013-05-02 01:50:00,
2013-05-01 21:55:00,51.6,32.0,27.60,SE,132,0.7,12.8,0,0.00,--,--,0.00,awk and wget,2013-05-02 01:55:00,
2013-05-01 22:00:00,53.0,32.0,27.60,ESE,117,7.7,10.0,0,0.00,--,--,0.00,awk and wget,2013-05-02 02:00:00,
2013-05-01 22:10:00,52.7,32.0,27.60,NNW,329,7.1,10.7,0,0.00,--,--,0.00,awk and wget,2013-05-02 02:10:00,
2013-05-01 22:15:00,50.5,32.0,27.60,East,100,5.7,12.8,0,0.00,--,--,0.00,awk and wget,2013-05-02 02:15:00,
2013-05-01 22:20:00,50.7,32.0,27.60,ESE,114,5.0,12.8,0,0.00,--,--,0.00,awk and wget,2013-05-02 02:20:00,
2013-05-01 22:25:00,49.7,32.0,27.61,ESE,107,4.5,12.8,0,0.00,--,--,0.00,awk and wget,2013-05-02 02:25:00,
2013-05-01 22:30:00,49.5,32.0,27.61,ESE,112,4.2,10.4,0,0.00,--,--,0.00,awk and wget,2013-05-02 02:30:00,
2013-05-01 22:40:00,50.9,32.0,27.61,NNW,335,4.4,10.4,0,0.00,--,--,0.00,awk and wget,2013-05-02 02:40:00,
2013-05-01 22:45:00,49.9,32.0,27.61,NNW,330,1.0,6.7,0,0.00,--,--,0.00,awk and wget,2013-05-02 02:45:00,
2013-05-01 22:50:00,50.2,32.0,27.61,ESE,103,2.3,5.4,0,0.00,--,--,0.00,awk and wget,2013-05-02 02:50:00,
2013-05-01 23:00:00,49.8,32.0,27.61,East,96,1.0,5.7,0,0.00,--,--,0.00,awk and wget,2013-05-02 03:00:00,
2013-05-01 23:05:00,50.5,32.0,27.60,NNW,332,0.5,7.2,0,0.00,--,--,0.00,awk and wget,2013-05-02 03:05:00,
2013-05-01 23:10:00,50.1,32.0,27.60,NNW,330,0.9,7.2,0,0.00,--,--,0.00,awk and wget,2013-05-02 03:10:00,
2013-05-01 23:15:00,50.9,32.0,27.60,SE,130,2.5,7.4,0,0.00,--,--,0.00,awk and wget,2013-05-02 03:15:00,
2013-05-01 23:20:00,50.9,32.0,27.60,NNW,335,0.7,9.5,0,0.00,--,--,0.00,awk and wget,2013-05-02 03:20:00,
2013-05-01 23:25:00,50.0,32.0,27.60,East,91,2.0,10.2,0,0.00,--,--,0.00,awk and wget,2013-05-02 03:25:00,
2013-05-01 23:30:00,49.8,32.0,27.60,ESE,107,2.8,10.2,0,0.00,--,--,0.00,awk and wget,2013-05-02 03:30:00,
2013-05-01 23:35:00,49.6,32.0,27.60,ESE,122,2.3,10.2,0,0.00,--,--,0.00,awk and wget,2013-05-02 03:35:00,
2013-05-01 23:40:00,51.0,32.0,27.60,NNW,335,1.5,9.5,0,0.00,--,--,0.00,awk and wget,2013-05-02 03:40:00,
2013-05-01 23:45:00,50.4,32.0,27.60,SE,133,2.4,8.3,0,0.00,--,--,0.00,awk and wget,2013-05-02 03:45:00,
2013-05-01 23:50:00,50.8,32.0,27.60,NNW,335,3.5,25.8,0,0.00,--,--,0.00,awk and wget,2013-05-02 03:50:00,
2013-05-01 23:55:00,50.8,32.0,27.60,NNW,336,1.7,25.8,0,0.00,--,--,0.00,awk and wget,2013-05-02 03:55:00,